User: anonymous   Login
Location: Unspecified
(0.0000°N, 0.0000°E)
Time: 09:45:04
(UTC+00:00)
Language:

USA 184 - Orbit

View from above orbital plane
View from above orbital plane
View from above satellite
View from above satellite

Ground track
Ground track

The orbit data is extracted from the following two-line orbital elements,

1 29249U 06027A   17002.58146866 0.00000000  00000-0  00000-0 0    08
2 29249  62.8790 299.8882 7069350 269.0260  16.7149  2.00610000    08
Epoch (UTC): 02 January 2017 13:57:18
Eccentricity: 0.7069350
inclination: 62.8790°
perigee height: 1404 km
apogee height: 38951 km
right ascension of ascending node: 299.8882°
argument of perigee: 269.0260°
revolutions per day: 2.00610000
mean anomaly at epoch: 16.7149°
orbit number at epoch: 0

The dashed part of the orbit path shows where the satellite is in the earth's shadow,  

DLR